Location: Bandys
(35.4750°N, 81.0830°W)
Time: 19:42:02
(UTC-04:00)

Daily predictions for brighter satellites

Satellite Brightness Start Highest point End
(mag) Time Altitude Azimuth Time Altitude Azimuth Time Altitude Azimuth
SEDSat Delta rocket 4.3 20:26:55 10° W 20:33:36 60° S 20:40:01 10° ESE
Okean 3 3.4 20:33:38 10° N 20:37:54 78° E 20:42:10 10° S
ATLAS 2AS CENTAUR R/B 4.4 20:36:43 10° SE 20:39:54 13° ESE 20:43:09 10° ENE
Cosmos 407 Rocket 4.2 20:40:09 10° N 20:45:09 39° ENE 20:50:05 10° SE
Lacrosse 5 rocket 3.5 20:44:41 10° NNE 20:45:53 11° NE 20:47:05 10° NE
Cosmos 1190 Rocket 4.5 20:40:53 10° N 20:45:53 43° ENE 20:50:54 10° SE
NOSS 3-1 (A) 3.3 20:40:22 10° SSW 20:45:58 73° ESE 20:52:11 10° NE
Resurs 1-3 3.9 20:42:45 10° SSE 20:46:58 49° ENE 20:51:12 10° N
Cosmos 1092 Rocket 4.1 20:42:42 10° S 20:48:49 84° W 20:55:02 10° N
DELTA 2 R/B (1) 4.1 20:43:47 10° WNW 20:49:18 57° N 20:54:50 10° E
HJ-1C 4.1 20:47:06 10° S 20:50:27 56° W 20:53:50 10° NNW
Cosmos 1908 Rocket 4.4 20:47:54 10° SSW 20:52:12 55° W 20:56:30 10° N
Cosmos 2322 Rocket 3.4 20:48:33 10° SSE 20:52:39 21° E 20:56:45 10° NE
Meteor 1-20 Rocket 4.2 20:47:42 10° S 20:53:16 72° E 20:58:46 10° NNE
Cosmos 2263 Rocket 4.2 20:57:50 10° NE 20:59:25 11° NE 21:00:59 10° ENE
ALOS 4.5 20:55:32 10° SSW 20:59:29 27° W 21:03:27 10° NW
GPS 2-05 Rocket1 2.9 20:56:37 10° WSW 20:59:54 53° SSE 21:02:33 14° E
SL-16 R/B 3.2 20:56:35 10° SSE 21:01:03 24° ESE 21:05:31 10° NE
Cosmos 1441 Rocket 3.1 20:59:25 10° N 21:03:08 69° E 21:06:51 10° SSE
Cosmos 405 Rocket 3.1 21:01:55 10° NNW 21:05:41 64° W 21:09:31 10° S
Cosmos 1553 Rocket 4.4 21:02:43 10° N 21:08:28 40° ENE 21:13:39 12° SE
Resurs 01 Rocket 1.8 21:06:05 10° S 21:10:31 79° WSW 21:15:00 10° NNW
Spot 2 Rocket 3.5 21:10:11 10° SSE 21:15:17 86° WSW 21:20:25 10° NNW
SJ-11-01 4.5 21:15:59 15° SE 21:19:42 51° ENE 21:24:14 10° N
Atlas Centaur 2 3.0 21:12:26 10° WSW 21:20:11 54° S 21:24:56 19° ESE
Meteor 2-11 Rocket 4.4 21:17:11 10° N 21:23:15 67° E 21:29:15 10° SSE
H-2A R/B 4.1 21:22:24 10° ENE 21:23:21 11° ENE 21:24:28 10° NE
Iridium 30 4.5 21:20:58 10° S 21:23:42 63° W 21:27:00 10° N
Okean 1 Rocket 4.5 21:24:16 19° E 21:24:16 19° E 21:27:12 10° NE
CZ-4C R/B 3.3 21:17:05 10° NW 21:24:26 67° WSW 21:32:25 10° SSE
Cosmos 2227 Rocket 4.3 21:19:54 10° NW 21:24:27 25° WSW 21:29:01 10° SSW
SeaSat 1 3.3 21:20:02 10° NNE 21:24:50 54° WNW 21:29:37 10° SW
Cosmos 1954 Rocket 4.3 21:20:27 10° N 21:25:36 49° ENE 21:28:44 23° SE
Cosmos 1140 Rocket 4.0 21:21:09 10° N 21:26:04 41° ENE 21:28:44 24° ESE
Cosmos 2360 Rocket 4.0 21:30:47 13° ENE 21:30:47 13° ENE 21:32:03 10° ENE
Cosmos 1980 Rocket 2.9 21:24:01 10° SW 21:29:31 57° WNW 21:35:03 10° NNE
Cosmos 2151 Rocket 3.5 21:27:36 10° S 21:31:57 69° E 21:36:20 10° NNE
Meteor 2-4 Rocket 4.3 21:27:50 10° N 21:32:55 36° ENE 21:35:12 26° ESE
Meteor 1-29 3.5 21:30:45 10° NNE 21:33:54 35° E 21:33:54 35° E
Cosmos 1300 Rocket 4.0 21:33:26 29° SE 21:34:54 38° E 21:38:53 10° NNE
Cosmos 44 Rocket 3.6 21:31:08 10° NNW 21:35:45 49° ENE 21:37:44 30° ESE
Tiangong 1 3.3 21:34:52 10° NW 21:36:54 18° N 21:38:33 12° NE
Cosmos 1655 Rocket 4.2 21:30:49 10° S 21:37:03 77° W 21:43:23 10° N
BREEZE-M DEB (TANK) 3.1 21:35:17 10° WSW 21:37:59 57° NNW 21:44:50 10° NE
Cosmos 614 Rocket 4.3 21:33:55 10° N 21:38:48 45° ENE 21:40:45 31° ESE
USA 186 3.8 21:38:22 10° SSW 21:41:15 29° W 21:44:13 10° NW
Cosmos 1975 Rocket 4.4 21:38:21 10° NNW 21:42:32 39° W 21:46:39 10° SSW
Envisat 3.5 21:39:10 10° S 21:44:09 58° W 21:49:10 10° NNW
YAOGAN 6 2.4 21:44:06 41° SSE 21:45:14 79° ENE 21:48:48 10° N
ERBS 3.8 21:43:33 10° WSW 21:46:49 38° NW 21:50:06 10° NNE
ERS-1 Rocket 3.5 21:46:00 33° ESE 21:47:25 41° ENE 21:52:06 10° N
GOES 2 Rocket 4.5 21:43:38 10° WSW 21:47:40 24° SSW 21:48:36 22° S
Meteor 1-11 Rocket 3.7 21:42:32 10° S 21:48:25 80° E 21:54:14 10° N
SPOT 5 4.2 21:48:23 23° ENE 21:48:43 23° ENE 21:52:28 10° NNE
STPSAT 2 (USA 217) 4.5 21:45:48 10° NNW 21:50:19 82° ENE 21:51:55 40° SSE
Spot 1 4.5 21:49:05 31° SSE 21:51:30 69° ENE 21:56:37 10° N
Cosmos 2227 4.1 21:53:24 10° NNW 21:59:04 86° WSW 22:01:40 34° SSE
Cosmos 1939 Rocket 4.0 21:59:35 19° SSW 22:02:06 41° W 22:05:53 10° NNW
NOSS 2-3 (D) 3.6 21:59:04 10° SSW 22:03:35 69° ESE 22:08:41 10° NE
Helios 1B rocket 2.8 22:00:10 10° N 22:04:13 63° WNW 22:07:26 16° SSW
ATLAS 3B R/B 4.2 22:01:12 10° N 22:05:55 20° NE 22:08:18 16° ENE
Cosmos 1536 Rocket 3.6 22:02:28 10° N 22:06:48 75° W 22:08:01 45° S
Cosmos 1536 3.2 22:15:57 45° SW 22:16:58 63° W 22:21:01 10° N
Cosmos 1850 Rocket 3.9 22:15:42 10° NNW 22:21:02 74° ENE 22:21:38 66° ESE
SPOT 1/Viking Rocket 4.2 22:24:07 39° ENE 22:24:07 39° ENE 22:28:37 10° N
Cosmos 883 Rocket 4.3 22:18:24 10° N 22:24:33 83° E 22:26:09 52° SSE
Lacrosse 5 rocket 1.7 22:21:43 10° NW 22:24:42 55° NW 22:24:42 55° NW
Meteor 1-23 Rocket 4.0 22:20:08 10° N 22:25:43 79° E 22:26:29 66° SE
MetOp-A 4.0 22:27:45 64° S 22:28:37 88° W 22:34:00 10° NNW
ATLAS 2AS CENTAUR R/B 2.9 22:22:03 10° SSW 22:29:35 80° ESE 22:37:41 10° NNE
Helios 1A 4.5 22:28:44 27° SW 22:30:01 32° W 22:33:51 10° NNW
Cosmos 44 3.7 22:27:31 10° NW 22:31:48 48° WSW 22:31:59 47° WSW
Intelsat 5-1 Rocket 4.2 22:19:33 10° WSW 22:33:53 37° S 22:34:41 36° S
DELTA 2 R/B (1) 3.4 22:30:23 10° WNW 22:36:01 84° SSW 22:36:11 82° SSE
Cosmos 2322 Rocket 3.2 22:30:49 10° SW 22:36:16 47° WNW 22:41:46 10° N
ARGOS 3.0 22:41:52 80° SSW 22:42:06 83° WSW 22:47:29 10° NNW
Cosmos 2263 Rocket 2.1 22:38:30 10° NNW 22:44:11 82° ENE 22:44:11 82° ENE
SL-16 R/B 3.5 22:39:35 10° SW 22:44:51 39° WNW 22:50:10 10° N
Cosmos 2322 4.3 22:52:33 44° NE 22:52:33 44° NE 22:56:26 10° NNE
Cosmos 2315 Rocket 3.9 22:45:28 10° N 22:51:43 82° W 22:52:23 72° SSW
Cosmos 1844 Rocket 4.4 22:49:07 10° N 22:52:30 20° NE 22:52:30 20° NE
Terra 3.4 22:57:53 26° NNE 22:57:53 26° NNE 23:00:18 10° N
H-2A R/B 2.4 23:03:02 59° NNW 23:03:02 59° NNW 23:07:10 10° NNW
Atlas Centaur 2 3.2 23:02:25 10° W 23:07:34 41° SW 23:07:34 41° SW
Cosmos 2360 Rocket 2.6 23:12:28 59° NW 23:12:28 59° NW 23:17:50 10° NNE
Cosmos 1607 4.1 23:11:40 10° NNW 23:17:31 73° NW 23:17:31 73° NW
Aureole 3 Rocket 4.3 23:11:10 10° N 23:20:02 90° NNW 23:20:06 89° S
Cosmos 1238 Rocket 4.1 23:13:15 10° N 23:19:27 76° NNW 23:19:27 76° NNW
SPOT 5 4.4 23:27:37 31° WNW 23:27:37 31° WNW 23:31:01 10° NNW
USA 238 DEB 4.1 23:22:51 10° NNW 23:29:14 55° NE 23:29:14 55° NE
USA 238 4.1 23:22:57 10° NNW 23:29:21 55° NE 23:29:21 55° NE
Lacrosse 5 4.0 23:41:50 21° N 23:41:50 21° N 23:43:43 10° NNE
